Columbia Owens, SC

6:30 PM EDT on April 23, 2018 (GMT -0400)
Columbia Owens Downtown

Weather History for KCUB - November, 2012

Change the Weather History Date:

Tuesday, November 13, 2012

  Actual Average Record
Temperature  
Mean Temperature 59 °F 57 °F  
Max Temperature 65 °F 68 °F 77 °F (2005)
Min Temperature 52 °F 45 °F 30 °F (2013)
Degree Days  
Heating Degree Days 6 9  
Month to date heating degree days 121 96  
Since 1 July heating degree days 195 185  
Cooling Degree Days 0 0  
Month to date cooling degree days 1 11  
Year to date cooling degree days 2516 2253  
Growing Degree Days 7 (Base 50)    
Moisture  
Dew Point 51 °F    
Average Humidity 82    
Maximum Humidity 93    
Minimum Humidity 66    
Precipitation  
Precipitation 0.02 in 0.08 in 0.97 in (2016)
Month to date precipitation 0.12 1.23  
Year to date precipitation 38.25 40.44  
Sea Level Pressure  
Sea Level Pressure 30.27 in    
Wind  
Wind Speed 4 mph (NE)    
Max Wind Speed 10 mph    
Max Gust Speed 20 mph    
Visibility 9 miles    
Events Rain    
T = Trace of Precipitation, MM = Missing Value Source: NWS Daily Summary

Daily Weather History Graph

Daily Weather History Graph

Search for Another Location

Airport or City:

Astronomy

Nov. 13, 2012 Rise Set
Actual Time 6:54 AM EST 5:21 PM EST
Civil Twilight 6:28 AM EST 5:47 PM EST
Nautical Twilight 5:58 AM EST 6:17 PM EST
Astronomical Twilight 5:28 AM EST 6:47 PM EST
Moon 6:30 AM EST (11/13) 5:14 PM EST (11/13)
Length of Visible Light 11h 19m
Length of Day
10h 26m
Waning Crescent, 0% of the Moon is Illuminated
Nov 13
Waning Crescent
Nov 13
New
Nov 20
First Quarter
Nov 28
Full
Dec 6
Last Quarter

Hourly Weather History & Observations

Time (EST) Temp. Dew Point Humidity Pressure Visibility Wind Dir Wind Speed Gust Speed Precip Events Conditions
12:53 AM 63.0 °F 61.0 °F 93% 30.19 in 10.0 mi Calm Calm - N/A   Partly Cloudy
1:53 AM 62.1 °F 60.1 °F 93% 30.18 in 9.0 mi Calm Calm - N/A   Partly Cloudy
2:53 AM 62.1 °F 60.1 °F 93% 30.17 in 8.0 mi Calm Calm - N/A   Overcast
3:53 AM 62.1 °F 60.1 °F 93% 30.17 in 9.0 mi Calm Calm - N/A   Overcast
4:36 AM 62.6 °F 60.8 °F 94% 30.18 in 8.0 mi Calm Calm - N/A   Mostly Cloudy
4:53 AM 62.1 °F 60.1 °F 93% 30.17 in 6.0 mi Calm Calm - 0.00 in Rain Light Rain
5:53 AM 63.0 °F 62.1 °F 97% 30.19 in 4.0 mi Calm Calm - 0.02 in Rain Light Rain
6:50 AM 62.6 °F 62.6 °F 100% 30.21 in 5.0 mi Calm Calm - 0.00 in   Overcast
6:53 AM 63.0 °F 62.1 °F 97% 30.20 in 5.0 mi Calm Calm - 0.00 in   Overcast
7:20 AM 62.6 °F 62.6 °F 100% 30.21 in 5.0 mi West 3.5 mph - N/A   Overcast
7:53 AM 62.1 °F 60.1 °F 93% 30.23 in 10.0 mi Variable 3.5 mph - N/A   Overcast
8:53 AM 60.1 °F 57.0 °F 90% 30.26 in 10.0 mi Variable 5.8 mph - N/A   Overcast
9:07 AM 60.8 °F 55.4 °F 82% 30.27 in 10.0 mi Variable 6.9 mph - N/A   Overcast
9:53 AM 57.0 °F 51.1 °F 81% 30.29 in 10.0 mi NE 8.1 mph 16.1 mph N/A   Overcast
10:05 AM 57.2 °F 51.8 °F 82% 30.29 in 10.0 mi NNE 8.1 mph - N/A   Overcast
10:53 AM 55.0 °F 50.0 °F 83% 30.30 in 10.0 mi Variable 4.6 mph - N/A   Overcast
11:05 AM 55.4 °F 50.0 °F 82% 30.30 in 10.0 mi Variable 3.5 mph - N/A   Overcast
11:53 AM 55.0 °F 48.9 °F 80% 30.29 in 10.0 mi NE 8.1 mph 18.4 mph N/A   Overcast
12:24 PM 55.4 °F 48.2 °F 77% 30.29 in 10.0 mi Variable 6.9 mph - N/A   Overcast
12:53 PM 54.0 °F 45.0 °F 72% 30.28 in 10.0 mi NNE 9.2 mph 18.4 mph N/A   Overcast
1:40 PM 53.6 °F 46.4 °F 77% 30.28 in 10.0 mi Variable 4.6 mph - N/A   Overcast
1:53 PM 53.1 °F 46.9 °F 80% 30.27 in 10.0 mi Variable 4.6 mph - N/A   Overcast
2:27 PM 53.6 °F 44.6 °F 72% 30.27 in 10.0 mi NE 8.1 mph - N/A   Overcast
2:53 PM 53.1 °F 44.1 °F 71% 30.28 in 10.0 mi Variable 4.6 mph - N/A   Overcast
3:53 PM 53.1 °F 44.1 °F 71% 30.29 in 10.0 mi Variable 3.5 mph - N/A   Overcast
4:53 PM 53.1 °F 44.1 °F 71% 30.29 in 10.0 mi Calm Calm - N/A   Overcast
5:44 PM 53.6 °F 44.6 °F 72% 30.30 in 10.0 mi Calm Calm - N/A   Overcast
5:53 PM 53.1 °F 43.0 °F 69% 30.30 in 10.0 mi Variable 6.9 mph - N/A   Overcast
6:53 PM 53.1 °F 44.1 °F 71% 30.32 in 10.0 mi Calm Calm - N/A   Overcast
7:53 PM 52.0 °F 44.1 °F 74% 30.33 in 10.0 mi Variable 4.6 mph - N/A   Overcast
8:17 PM 51.8 °F 44.6 °F 76% 30.34 in 10.0 mi Variable 4.6 mph - N/A   Overcast
8:53 PM 52.0 °F 43.0 °F 71% 30.34 in 10.0 mi Variable 4.6 mph - N/A   Overcast
9:53 PM 52.0 °F 43.0 °F 71% 30.35 in 10.0 mi ENE 4.6 mph - N/A   Overcast
10:53 PM 52.0 °F 43.0 °F 71% 30.36 in 10.0 mi ENE 4.6 mph - N/A   Overcast
11:53 PM 52.0 °F 43.0 °F 71% 30.35 in 10.0 mi NE 6.9 mph - N/A   Overcast